Meteo Giornale » Osservazioni meteo Stati Uniti (USA) » Nenana-Mun
ore: 00:53 - Osservazioni Meteo Nenana-Mun
Lat. 64° 33' N Lon. 149° 5' W Alt. 110 metri s.l.m.
7 °C
Coperto
Temp. 24 Ore
6 °C
11 °C
Nord
5.5 Km/h
Dew point 3 °C
Umidità 75 %
Visibilità 10 Km
Il sole sorge alle ore 06:38
Il sole tramonta alle ore 21:13
| Data e Ora | Cielo e Fenomeni | T °C | DP °C | Um. % | Pres. hPa | Vis. km | Vento km/h | |
|---|---|---|---|---|---|---|---|---|
| Oggi h: 00:53 | Coperto | 7 | 3 | 75 | 1009 | 10 | N 5.5 | |
| Ieri h: 23:53 | Molto Nuvoloso | 8 | 3 | 70 | 1009 | 10 | SO 9.3 | |
| Ieri h: 22:53 | Coperto | 9 | 3 | 66 | 1009 | 10 | SO 9.3 | |
| Ieri h: 21:53 | Coperto | 9 | 3 | 66 | 1009 | 10 | SO 11.1 | |
| Ieri h: 20:53 | Coperto | 9 | 3 | 66 | 1008 | 10 | N 0 | |
| Ieri h: 19:53 | Coperto | 11 | 2 | 53 | 1008 | 10 | N 5.5 | |
| Ieri h: 18:53 | Coperto | 11 | 2 | 53 | 1008 | 10 | N 0 | |
| Ieri h: 17:53 | Coperto | 11 | 1 | 50 | 1008 | 10 | N 0 | |
| Ieri h: 16:53 | Coperto | 11 | 1 | 50 | 1007 | 10 | O/NO 7.4 | |
| Ieri h: 15:53 | Coperto | 11 | 2 | 53 | 1007 | 10 | NO 13 | |
| Ieri h: 14:53 | Coperto | 9 | 1 | 57 | 1007 | 10 | O/NO 11.1 | |
| Ieri h: 13:53 | Coperto | 9 | 3 | 66 | 1007 | 10 | N 9.3 | |
| Ieri h: 13:22 | Molto Nuvoloso | 9 | 3 | 66 | 1006 | 10 | N 11.1 | |
| Ieri h: 13:13 | Molto Nuvoloso | 9 | 4 | 70 | 1006 | 10 | N 11.1 | |
| Ieri h: 13:03 | Molto Nuvoloso | 8 | 4 | 75 | 1006 | 10 | N 9.3 | |
| Ieri h: 12:53 | Coperto | 8 | 4 | 75 | 1006 | 10 | N 11.1 | |
| Ieri h: 12:49 | Coperto | 8 | 5 | 81 | 1006 | 10 | N 9.3 | |
| Ieri h: 11:53 | Coperto | 8 | 5 | 81 | 1006 | 10 | N 7.4 | |
| Ieri h: 11:48 | Coperto | 8 | 5 | 81 | 1006 | 10 | O/NO 7.4 | |
| Ieri h: 10:53 | Coperto | 7 | 5 | 87 | 1006 | 10 | N 0 | |
| Ieri h: 09:53 | Coperto | 6 | 5 | 93 | 1005 | 10 | N 5.5 | |
| Ieri h: 08:53 | Coperto | 6 | 5 | 93 | 1005 | 10 | N 5.5 | |
| Ieri h: 07:53 | Coperto | 6 | 6 | 100 | 1004 | 10 | NO 7.4 | |
| Ieri h: 07:30 | Foschia | 6 | 6 | 100 | 1004 | 10 | N 5.5 | |
| Ieri h: 07:20 | Coperto | 6 | 6 | 100 | 1004 | 11 | N 0 | |
| Ieri h: 06:53 | Coperto | 6 | 6 | 100 | 1004 | 10 | N 0 | |
| Ieri h: 06:35 | Coperto | 6 | 6 | 100 | 1004 | 10 | N 7.4 | |
| Ieri h: 05:53 | Pioggia | 6 | 6 | 100 | 1003 | 10 | N 5.5 | |
| Ieri h: 05:24 | Pioggia | 6 | 6 | 100 | 1003 | 11 | N 5.5 | |
| Ieri h: 05:15 | Pioggia | 6 | 6 | 100 | 1003 | 10 | N 5.5 | |
| Ieri h: 04:53 | Pioggia Foschia | 6 | 6 | 100 | 1003 | 5 | SO 11.1 | |
| Ieri h: 04:24 | Pioggia | 6 | 6 | 100 | 1003 | 11 | N 5.5 | |
| Ieri h: 04:06 | Pioggia | 6 | 6 | 100 | 1003 | 10 | N 0 | |
| Ieri h: 03:53 | Coperto | 6 | 6 | 100 | 1003 | 10 | N 5.5 | |
| Ieri h: 02:53 | Coperto | 7 | 6 | 93 | 1003 | 10 | N 0 | |
| Ieri h: 02:45 | Coperto | 7 | 6 | 93 | 1003 | 10 | N 0 | |
| Ieri h: 02:16 | Pioggia | 7 | 6 | 93 | 1003 | 10 | N 0 | |
| Ieri h: 01:53 | Pioggia | 7 | 6 | 93 | 1004 | 10 | N 5.5 | |



